TimeEDT,TemperatureF,Dew PointF,Humidity,Sea Level PressureIn,VisibilityMPH,Wind Direction,Wind SpeedMPH,Gust SpeedMPH,PrecipitationIn,Events,Conditions,WindDirDegrees,DateUTC
12:14 AM,53.6,50.0,88,30.15,10.0,North,6.9,-,N/A,,Overcast,350,2012-10-09 04:14:00
12:31 AM,53.6,50.0,88,30.13,8.0,NNE,8.1,-,0.00,Rain,Light Rain,20,2012-10-09 04:31:00
12:54 AM,54.0,51.1,90,30.14,7.0,North,6.9,-,0.00,,Overcast,360,2012-10-09 04:54:00
1:52 AM,55.4,51.8,88,30.12,5.0,North,6.9,-,0.00,Rain,Light Rain,10,2012-10-09 05:52:00
1:54 AM,55.0,52.0,89,30.13,5.0,NNE,5.8,-,0.00,Rain,Light Rain,20,2012-10-09 05:54:00
2:54 AM,55.9,52.0,87,30.13,6.0,North,5.8,-,0.00,,Overcast,350,2012-10-09 06:54:00
3:18 AM,55.4,51.8,88,30.12,6.0,NNW,8.1,-,N/A,,Overcast,340,2012-10-09 07:18:00
3:31 AM,55.4,51.8,88,30.12,6.0,North,6.9,-,N/A,,Overcast,350,2012-10-09 07:31:00
3:47 AM,55.4,51.8,88,30.12,6.0,North,6.9,-,N/A,,Overcast,350,2012-10-09 07:47:00
3:54 AM,55.0,52.0,89,30.12,7.0,North,5.8,-,N/A,,Overcast,360,2012-10-09 07:54:00
4:21 AM,55.4,51.8,88,30.11,7.0,NNW,8.1,-,N/A,,Overcast,330,2012-10-09 08:21:00
4:36 AM,55.4,51.8,88,30.11,6.0,North,8.1,-,0.01,Rain,Light Rain,360,2012-10-09 08:36:00
4:54 AM,55.0,52.0,89,30.12,5.0,NNW,10.4,-,0.01,,Overcast,340,2012-10-09 08:54:00
5:54 AM,54.0,51.1,90,30.12,5.0,North,8.1,-,N/A,,Overcast,360,2012-10-09 09:54:00
6:54 AM,54.0,50.0,86,30.12,5.0,North,9.2,-,N/A,,Overcast,350,2012-10-09 10:54:00
7:10 AM,53.6,50.0,88,30.11,3.0,North,9.2,-,N/A,,Overcast,360,2012-10-09 11:10:00
7:28 AM,53.6,50.0,88,30.11,2.5,North,11.5,-,N/A,,Overcast,360,2012-10-09 11:28:00
7:37 AM,53.6,50.0,88,30.11,3.0,North,9.2,-,0.00,Rain,Light Rain,360,2012-10-09 11:37:00
7:49 AM,53.6,51.8,94,30.12,2.5,North,6.9,-,0.00,,Overcast,350,2012-10-09 11:49:00
7:54 AM,54.0,51.1,90,30.13,2.5,NNW,9.2,-,0.00,,Overcast,340,2012-10-09 11:54:00
8:18 AM,53.6,51.8,94,30.13,3.0,North,6.9,-,N/A,,Overcast,350,2012-10-09 12:18:00
8:51 AM,55.4,51.8,88,30.13,2.5,North,5.8,-,N/A,,Overcast,350,2012-10-09 12:51:00
8:54 AM,55.0,51.1,86,30.14,2.5,NNW,8.1,-,N/A,,Overcast,340,2012-10-09 12:54:00
9:10 AM,55.4,51.8,88,30.14,3.0,NNW,8.1,-,N/A,,Overcast,340,2012-10-09 13:10:00
9:54 AM,55.9,53.1,90,30.13,4.0,NNE,10.4,16.1,N/A,,Overcast,30,2012-10-09 13:54:00
10:54 AM,57.0,53.1,87,30.13,8.0,North,9.2,-,N/A,,Overcast,360,2012-10-09 14:54:00
11:44 AM,59.0,53.6,82,30.13,10.0,North,5.8,-,N/A,,Overcast,350,2012-10-09 15:44:00
11:54 AM,57.9,54.0,87,30.13,10.0,North,6.9,-,N/A,,Overcast,360,2012-10-09 15:54:00
12:54 PM,60.1,55.9,86,30.11,3.0,North,4.6,-,0.00,Rain,Light Rain,350,2012-10-09 16:54:00
1:54 PM,61.0,55.9,83,30.09,6.0,North,8.1,-,0.01,,Haze,10,2012-10-09 17:54:00
2:54 PM,61.0,55.9,83,30.09,10.0,North,6.9,-,N/A,,Overcast,10,2012-10-09 18:54:00
3:54 PM,62.1,57.0,84,30.08,10.0,North,6.9,-,N/A,,Overcast,360,2012-10-09 19:54:00
4:54 PM,62.1,57.0,84,30.07,5.0,North,8.1,-,N/A,,Haze,10,2012-10-09 20:54:00
5:54 PM,62.1,57.0,84,30.07,10.0,North,5.8,-,N/A,,Overcast,350,2012-10-09 21:54:00
6:54 PM,61.0,57.9,90,30.07,4.0,NNW,4.6,-,N/A,,Overcast,330,2012-10-09 22:54:00
7:25 PM,60.8,57.2,88,30.06,2.5,North,6.9,-,N/A,,Overcast,350,2012-10-09 23:25:00
7:36 PM,60.8,57.2,88,30.06,2.0,North,5.8,-,N/A,,Overcast,350,2012-10-09 23:36:00
7:54 PM,61.0,57.0,87,30.07,3.0,NNW,6.9,-,N/A,,Overcast,340,2012-10-09 23:54:00
8:02 PM,60.8,57.2,88,30.07,2.5,NNW,4.6,-,N/A,,Overcast,340,2012-10-10 00:02:00
8:18 PM,60.8,57.2,88,30.07,3.0,NNW,5.8,-,N/A,,Overcast,340,2012-10-10 00:18:00
8:54 PM,60.1,57.0,90,30.07,4.0,NNW,5.8,-,N/A,,Overcast,340,2012-10-10 00:54:00
9:54 PM,60.1,57.0,90,30.07,4.0,NNW,5.8,-,N/A,,Overcast,330,2012-10-10 01:54:00
10:33 PM,60.8,57.2,88,30.06,2.0,North,5.8,-,N/A,,Overcast,350,2012-10-10 02:33:00
10:43 PM,60.8,57.2,88,30.06,1.8,North,3.5,-,N/A,,Overcast,350,2012-10-10 02:43:00
10:54 PM,60.1,57.0,90,30.06,2.0,NNW,3.5,-,N/A,,Overcast,340,2012-10-10 02:54:00
11:20 PM,60.8,57.2,88,30.05,3.0,North,4.6,-,N/A,,Overcast,350,2012-10-10 03:20:00
11:36 PM,60.8,57.2,88,30.05,2.5,NNW,4.6,-,N/A,,Overcast,340,2012-10-10 03:36:00
11:54 PM,60.1,57.0,90,30.05,1.8,NNW,5.8,-,N/A,,Overcast,340,2012-10-10 03:54:00